Location: Betra
(48.4113°N, 8.6634°E)
Time: 00:06:08
(UTC+00:00)

Aureole 3 - Pass Details

Date: 05 August 2024
Orbit: 375 x 1118 km, 82.5° (Epoch: 10 September)

Event Time Altitude Azimuth Distance (km) Brightness Sun altitude
Rises 02:18:17 0° 346° (NNW) 2,934 7.5 -14.9°
Reaches altitude 10° 02:20:47 10° 341° (NNW) 1,895 6.4 -14.6°
Maximum altitude 02:24:43 47° 267° (W) 667 3.4 -14.2°
Enters shadow 02:26:24 25° 206° (SSW) 978 4.0 -14.0°
